Location: Unspecified
(42.3650°N, 71.1030°W)
Time: 11:33:40
(UTC+00:00)

Courier 1B - Pass Details

Date: 03 July 2024
Orbit: 962 x 1209 km, 28.3° (Epoch: 13 July)

Event Time Altitude Azimuth Distance (km) Brightness Sun altitude
Rises 04:30:56 0° 253° (WSW) 3,661 10.4 -24.6°
Enters shadow 04:32:02 - 248° (WSW) 3,339 10.1 -24.6°
Reaches altitude 10° 04:34:21 10° 236° (SW) 2,739 - -24.6°
Maximum altitude 04:38:48 19° 193° (SSW) 2,192 - -24.7°
Drops below altitude 10° 04:43:24 10° 151° (SSE) 2,837 - -24.7°
Sets 04:47:02 0° 134° (SE) 3,839 - -24.7°
